Holdrege, NE

1:10 AM CST on December 12, 2017 (GMT -0600)
Brewster

Weather History for KHDE - November, 2013

Change the Weather History Date:

Sunday, November 24, 2013

  Actual Average Record
Temperature  
Mean Temperature 25 °F -  
Max Temperature 36 °F 44 °F 76 °F (2017)
Min Temperature 14 °F 21 °F 1 °F (1950)
Degree Days  
Heating Degree Days 40    
Moisture  
Dew Point 19 °F    
Average Humidity 77    
Maximum Humidity 87    
Minimum Humidity 65    
Precipitation  
Precipitation 0.00 in - - ()
Sea Level Pressure  
Sea Level Pressure 30.33 in    
Wind  
Wind Speed 12 mph (South)    
Max Wind Speed 24 mph    
Max Gust Speed 32 mph    
Visibility 10 miles    
Events      
Averages and records for this station are not official NWS values.
T = Trace of Precipitation, MM = Missing Value Source: NWS Daily Summary

Daily Weather History Graph

Daily Weather History Graph

Search for Another Location

Airport or City:

Trip Planner

Search our weather history database for the weather conditions in past years. The results will help you decide how hot, cold, wet, or windy it might be!

Date:

Astronomy

Nov. 24, 2013 Rise Set
Actual Time 7:34 AM CST 5:13 PM CST
Civil Twilight 7:04 AM CST 5:43 PM CST
Nautical Twilight 6:30 AM CST 6:17 PM CST
Astronomical Twilight 5:58 AM CST 6:49 PM CST
Moon 11:42 PM CST (11/24) 12:22 PM CST (11/24)
Length of Visible Light 10h 39m
Length of Day
9h 39m
Waning Gibbous, 60% of the Moon is Illuminated
Nov 24
Waning Gibbous
Nov 25
Last Quarter
Dec 2
New
Dec 9
First Quarter
Dec 17
Full

Hourly Weather History & Observations

Time (CST) Temp. Windchill Dew Point Humidity Pressure Visibility Wind Dir Wind Speed Gust Speed Precip Events Conditions
12:15 AM 16.7 °F 8.3 °F 9.1 °F 72% 30.60 in 10.0 mi SSE 5.8 mph - N/A   Clear
12:35 AM 15.8 °F 5.1 °F 9.0 °F 74% 30.58 in 10.0 mi South 8.1 mph - N/A   Clear
12:55 AM 15.4 °F 6.8 °F 9.3 °F 77% 30.57 in 10.0 mi South 5.8 mph - N/A   Clear
1:15 AM 15.6 °F 4.9 °F 9.5 °F 77% 30.56 in 10.0 mi South 8.1 mph - N/A   Clear
1:35 AM 16.3 °F 5.7 °F 9.7 °F 75% 30.56 in 10.0 mi South 8.1 mph - N/A   Clear
1:55 AM 14.9 °F 5.0 °F 9.1 °F 78% 30.56 in 10.0 mi South 6.9 mph - N/A   Clear
2:15 AM 14.9 °F 5.0 °F 9.3 °F 79% 30.56 in 10.0 mi South 6.9 mph - N/A   Clear
2:35 AM 14.5 °F 3.6 °F 9.1 °F 79% 30.57 in 10.0 mi South 8.1 mph - N/A   Clear
2:55 AM 14.4 °F 2.4 °F 9.1 °F 80% 30.56 in 10.0 mi South 9.2 mph - N/A   Clear
3:15 AM 15.3 °F 3.5 °F 9.5 °F 78% 30.55 in 10.0 mi South 9.2 mph - N/A   Clear
3:35 AM 14.0 °F 5.1 °F 9.0 °F 80% 30.55 in 10.0 mi South 5.8 mph - N/A   Clear
3:55 AM 15.3 °F 3.5 °F 10.4 °F 81% 30.54 in 10.0 mi South 9.2 mph - N/A   Clear
4:15 AM 16.5 °F 3.6 °F 11.8 °F 82% 30.52 in 10.0 mi South 11.5 mph - N/A   Clear
4:35 AM 16.7 °F 4.5 °F 11.8 °F 81% 30.52 in 10.0 mi South 10.4 mph 17.3 mph N/A   Clear
4:55 AM 16.5 °F 4.3 °F 12.0 °F 82% 30.51 in 10.0 mi South 10.4 mph - N/A   Clear
5:15 AM 16.3 °F 4.9 °F 12.2 °F 84% 30.50 in 10.0 mi SSE 9.2 mph - N/A   Clear
5:35 AM 15.8 °F 3.4 °F 12.2 °F 86% 30.50 in 10.0 mi South 10.4 mph - N/A   Clear
5:55 AM 16.0 °F 2.9 °F 12.7 °F 87% 30.48 in 10.0 mi South 11.5 mph - N/A   Clear
6:15 AM 16.7 °F 2.6 °F 13.1 °F 86% 30.47 in 10.0 mi South 13.8 mph - N/A   Clear
6:35 AM 15.8 °F 3.4 °F 12.0 °F 85% 30.47 in 10.0 mi SSE 10.4 mph - N/A   Clear
6:55 AM 15.8 °F 2.7 °F 12.2 °F 86% 30.47 in 10.0 mi South 11.5 mph - N/A   Clear
7:15 AM 17.4 °F 2.9 °F 13.1 °F 83% 30.46 in 10.0 mi South 15.0 mph 18.4 mph N/A   Clear
7:35 AM 16.3 °F 4.1 °F 11.7 °F 82% 30.46 in 10.0 mi South 10.4 mph - N/A   Clear
7:55 AM 15.8 °F 4.2 °F 11.7 °F 84% 30.46 in 10.0 mi South 9.2 mph - N/A   Clear
8:15 AM 16.7 °F 4.5 °F 12.6 °F 84% 30.46 in 10.0 mi South 10.4 mph - N/A   Clear
8:35 AM 18.0 °F 3.6 °F 13.6 °F 83% 30.44 in 10.0 mi South 15.0 mph - N/A   Clear
8:55 AM 19.2 °F 6.4 °F 14.7 °F 83% 30.44 in 10.0 mi South 12.7 mph - N/A   Clear
9:15 AM 21.4 °F 9.1 °F 16.2 °F 80% 30.44 in 10.0 mi South 12.7 mph - N/A   Clear
9:35 AM 23.0 °F 10.1 °F 17.6 °F 80% 30.43 in 10.0 mi South 15.0 mph - N/A   Clear
9:55 AM 26.8 °F 12.9 °F 19.8 °F 75% 30.42 in 10.0 mi South 20.7 mph 25.3 mph N/A   Clear
10:15 AM 27.3 °F 13.6 °F 19.2 °F 72% 30.41 in 10.0 mi South 20.7 mph 25.3 mph N/A   Clear
10:35 AM 27.5 °F 13.9 °F 18.9 °F 70% 30.40 in 10.0 mi SSW 20.7 mph 26.5 mph N/A   Clear
10:55 AM 28.6 °F 16.8 °F 19.8 °F 70% 30.39 in 10.0 mi South 16.1 mph 20.7 mph N/A   Clear
11:15 AM 30.7 °F 19.6 °F 20.7 °F 66% 30.38 in 10.0 mi South 16.1 mph 26.5 mph N/A   Clear
11:35 AM 32.0 °F 19.5 °F 21.4 °F 65% 30.37 in 10.0 mi SSW 21.9 mph 31.1 mph N/A   Scattered Clouds
11:55 AM 30.0 °F 16.9 °F 20.8 °F 69% 30.35 in 10.0 mi SSW 21.9 mph 28.8 mph N/A   Overcast
12:15 PM 32.0 °F 19.8 °F 22.6 °F 68% 30.34 in 10.0 mi SSW 20.7 mph 27.6 mph N/A   Overcast
12:35 PM 32.2 °F 20.4 °F 22.8 °F 68% 30.32 in 10.0 mi SSW 19.6 mph 28.8 mph N/A   Overcast
12:55 PM 32.5 °F 21.5 °F 23.2 °F 68% 30.31 in 10.0 mi SSW 17.3 mph 26.5 mph N/A   Overcast
1:15 PM 34.3 °F 23.5 °F 23.7 °F 65% 30.30 in 10.0 mi South 18.4 mph 25.3 mph N/A   Overcast
1:35 PM 33.4 °F 22.3 °F 23.7 °F 68% 30.29 in 10.0 mi South 18.4 mph 24.2 mph N/A   Overcast
1:55 PM 33.4 °F 22.3 °F 23.9 °F 68% 30.27 in 10.0 mi South 18.4 mph 25.3 mph N/A   Overcast
2:15 PM 33.8 °F 23.5 °F 24.4 °F 69% 30.26 in 10.0 mi South 16.1 mph - N/A   Overcast
2:35 PM 34.5 °F 23.1 °F 25.0 °F 68% 30.24 in 10.0 mi South 20.7 mph 26.5 mph N/A   Mostly Cloudy
2:55 PM 35.6 °F 23.7 °F 25.7 °F 67% 30.23 in 10.0 mi SSW 24.2 mph 32.2 mph N/A   Scattered Clouds
3:15 PM 34.5 °F 22.8 °F 26.1 °F 71% 30.22 in 10.0 mi South 21.9 mph 27.6 mph N/A   Scattered Clouds
3:35 PM 34.7 °F 24.0 °F 25.5 °F 69% 30.21 in 10.0 mi South 18.4 mph 21.9 mph N/A   Scattered Clouds
3:55 PM 36.0 °F 26.0 °F 26.1 °F 67% 30.20 in 10.0 mi South 17.3 mph 29.9 mph N/A   Clear
4:15 PM 34.9 °F 24.6 °F 25.5 °F 69% 30.19 in 10.0 mi South 17.3 mph 25.3 mph N/A   Scattered Clouds
4:35 PM 35.1 °F 23.8 °F 25.2 °F 67% 30.18 in 10.0 mi South 20.7 mph 26.5 mph N/A   Mostly Cloudy
4:55 PM 32.9 °F 23.2 °F 24.6 °F 72% 30.18 in 10.0 mi South 13.8 mph 19.6 mph N/A   Scattered Clouds
5:15 PM 32.0 °F 22.1 °F 23.5 °F 71% 30.16 in 10.0 mi South 13.8 mph 19.6 mph N/A   Clear
5:35 PM 31.1 °F 20.1 °F 23.0 °F 72% 30.16 in 10.0 mi South 16.1 mph 20.7 mph N/A   Clear
5:55 PM 30.9 °F 21.2 °F 22.8 °F 72% 30.15 in 10.0 mi South 12.7 mph - N/A   Clear
6:15 PM 31.8 °F 21.0 °F 24.8 °F 75% 30.13 in 10.0 mi South 16.1 mph 21.9 mph N/A   Clear
6:35 PM 31.8 °F 21.0 °F 25.7 °F 78% 30.13 in 10.0 mi South 16.1 mph 26.5 mph N/A   Clear
6:55 PM 31.1 °F 19.3 °F 26.2 °F 82% 30.13 in 10.0 mi South 18.4 mph 24.2 mph N/A   Clear
7:15 PM 31.3 °F 21.1 °F 27.0 °F 84% 30.13 in 10.0 mi South 13.8 mph 21.9 mph N/A   Mostly Cloudy
7:35 PM 31.1 °F 19.3 °F 27.5 °F 87% 30.13 in 10.0 mi South 18.4 mph 23.0 mph N/A   Overcast
7:55 PM 30.7 °F 18.5 °F 27.1 °F 86% 30.12 in 10.0 mi SSW 19.6 mph 29.9 mph N/A   Overcast
8:15 PM 30.2 °F 18.1 °F 26.4 °F 86% 30.13 in 10.0 mi South 18.4 mph 27.6 mph N/A   Overcast
8:35 PM 30.0 °F 18.3 °F 26.2 °F 86% 30.13 in 10.0 mi SSW 17.3 mph 24.2 mph N/A   Overcast
8:55 PM 29.7 °F 19.1 °F 25.7 °F 85% 30.13 in 10.0 mi South 13.8 mph 17.3 mph N/A   Overcast
9:15 PM 29.5 °F 19.9 °F 25.5 °F 85% 30.13 in 10.0 mi South 11.5 mph - N/A   Overcast
9:35 PM 29.8 °F 20.9 °F 25.7 °F 85% 30.13 in 10.0 mi South 10.4 mph - N/A   Overcast
9:55 PM 30.0 °F 20.0 °F 25.5 °F 83% 30.12 in 10.0 mi South 12.7 mph - N/A   Overcast
10:15 PM 29.7 °F 19.1 °F 24.8 °F 82% 30.11 in 10.0 mi South 13.8 mph 18.4 mph N/A   Overcast
10:35 PM 29.3 °F 19.1 °F 24.4 °F 82% 30.10 in 10.0 mi South 12.7 mph - N/A   Overcast
10:55 PM 29.3 °F 17.3 °F 23.9 °F 80% 30.10 in 10.0 mi South 17.3 mph 20.7 mph N/A   Overcast
11:15 PM 29.1 °F 17.5 °F 23.7 °F 80% 30.10 in 10.0 mi South 16.1 mph 21.9 mph N/A   Overcast
11:35 PM 28.8 °F 17.0 °F 23.4 °F 80% 30.10 in 10.0 mi South 16.1 mph 19.6 mph N/A   Overcast
11:55 PM 28.8 °F 19.0 °F 23.0 °F 79% 30.09 in 10.0 mi South 11.5 mph 19.6 mph N/A   Overcast